Location: G�ndlingen
(48.0142°N, 7.6396°E)
Time: 02:22:48
(UTC+00:00)

Cosmos 1844 - Pass Details

Date: 05 July 2020
Orbit: 822 x 868 km, 70.9° (Epoch: 04 August)

Event Time Altitude Azimuth Distance (km) Brightness Sun altitude
Rises 20:15:36 0° 333° (NNW) 3,462 8.6 -6.5°
Reaches altitude 10° 20:18:06 10° 335° (NNW) 2,518 7.6 -6.8°
Maximum altitude 20:23:54 72° 60° (ENE) 907 3.9 -7.5°
Drops below altitude 10° 20:29:35 10° 145° (SE) 2,478 5.5 -8.1°
Enters shadow 20:29:41 10° 145° (SE) 2,510 5.5 -8.1°
